Location: Ash Swamp
(41.5170°N, 74.6157°W)
Time: 02:09:50
(UTC+00:00)

Gbstr 26 Del rocket - Pass Details

Date: 14 July 2020
Orbit: 493 x 1264 km, 51.8° (Epoch: 14 August)

Event Time Altitude Azimuth Distance (km) Brightness Sun altitude
Rises 01:22:58 0° 217° (SW) 2,704 6.3 -8.7°
Reaches altitude 10° 01:25:20 10° 211° (SSW) 1,750 5.3 -9.0°
Maximum altitude 01:29:00 44° 138° (SE) 698 2.9 -9.6°
Drops below altitude 10° 01:32:34 10° 66° (ENE) 1,688 5.1 -10.1°
Sets 01:34:47 0° 59° (ENE) 2,594 6.1 -10.4°
